Chapel Hill, NC

1:33 AM EST on November 20, 2017 (GMT -0500)
Williams

Weather History for KIGX - April, 2013

Change the Weather History Date:

Sunday, April 28, 2013

  Actual Average Record
Temperature  
Mean Temperature 56 °F -  
Max Temperature 59 °F 75 °F 93 °F (1990)
Min Temperature 54 °F 46 °F 34 °F (1993)
Degree Days  
Heating Degree Days 8    
Growing Degree Days 6 (Base 50)    
Moisture  
Dew Point 51 °F    
Average Humidity 84    
Maximum Humidity 94    
Minimum Humidity 64    
Precipitation  
Precipitation 0.71 in - - ()
Sea Level Pressure  
Sea Level Pressure 30.18 in    
Wind  
Wind Speed 3 mph (ENE)    
Max Wind Speed 7 mph    
Max Gust Speed -    
Visibility 6 miles    
Events Rain    
Averages and records for this station are not official NWS values.
T = Trace of Precipitation, MM = Missing Value Source: NWS Daily Summary

Daily Weather History Graph

Daily Weather History Graph

Search for Another Location

Airport or City:

Trip Planner

Search our weather history database for the weather conditions in past years. The results will help you decide how hot, cold, wet, or windy it might be!

Date:

Astronomy

Apr. 28, 2013 Rise Set
Actual Time 6:26 AM EDT 8:01 PM EDT
Civil Twilight 5:59 AM EDT 8:28 PM EDT
Nautical Twilight 5:26 AM EDT 9:01 PM EDT
Astronomical Twilight 4:52 AM EDT 9:35 PM EDT
Moon 11:26 PM EDT (4/28) 8:45 AM EDT (4/28)
Length of Visible Light 14h 28m
Length of Day
13h 34m
Waning Gibbous, 89% of the Moon is Illuminated
Apr 28
Waning Gibbous
May 2
Last Quarter
May 9
New
May 18
First Quarter
May 25
Full

Hourly Weather History & Observations

Time (EDT) Temp. Dew Point Humidity Pressure Visibility Wind Dir Wind Speed Gust Speed Precip Events Conditions
12:56 AM 57.9 °F 50.0 °F 75% 30.26 in 10.0 mi Variable 3.5 mph - N/A   Overcast
1:56 AM 55.9 °F 51.1 °F 84% 30.25 in 10.0 mi Calm Calm - N/A   Scattered Clouds
2:56 AM 55.9 °F 51.1 °F 84% 30.24 in 10.0 mi Calm Calm - N/A   Overcast
3:56 AM 57.0 °F 51.1 °F 81% 30.23 in 10.0 mi Calm Calm - N/A   Overcast
4:56 AM 57.0 °F 48.9 °F 74% 30.22 in 10.0 mi East 3.5 mph - N/A   Overcast
5:56 AM 57.0 °F 45.0 °F 64% 30.23 in 10.0 mi Calm Calm - N/A   Overcast
6:56 AM 55.0 °F 48.9 °F 80% 30.24 in 10.0 mi Calm Calm - 0.00 in   Overcast
7:56 AM 54.0 °F 46.0 °F 75% 30.26 in 8.0 mi East 3.5 mph - 0.01 in Rain Light Rain
8:56 AM 54.0 °F 46.9 °F 77% 30.25 in 10.0 mi East 3.5 mph - 0.01 in Rain Light Rain
9:56 AM 55.9 °F 46.0 °F 69% 30.24 in 10.0 mi Calm Calm - 0.00 in   Overcast
10:56 AM 57.0 °F 46.9 °F 69% 30.24 in 10.0 mi ESE 3.5 mph - N/A   Overcast
11:56 AM 59.0 °F 46.9 °F 64% 30.23 in 10.0 mi East 4.6 mph - 0.00 in Rain Light Rain
12:56 PM 57.0 °F 50.0 °F 77% 30.22 in 4.0 mi ENE 4.6 mph - 0.02 in Rain Light Rain
1:56 PM 57.0 °F 51.1 °F 81% 30.21 in 10.0 mi ENE 3.5 mph - 0.02 in   Overcast
2:56 PM 57.9 °F 51.1 °F 78% 30.18 in 10.0 mi ENE 4.6 mph - N/A   Overcast
3:56 PM 57.0 °F 53.1 °F 87% 30.17 in 2.5 mi NW 3.5 mph - 0.03 in Rain Rain
4:07 PM 57.0 °F 54.0 °F 89% 30.17 in 4.0 mi NNW 3.5 mph - 0.01 in Rain Light Rain
4:56 PM 57.0 °F 53.1 °F 87% 30.14 in 4.0 mi ENE 6.9 mph - 0.06 in Rain Rain
5:56 PM 57.0 °F 53.1 °F 87% 30.14 in 7.0 mi ENE 4.6 mph - 0.04 in Rain Light Rain
6:56 PM 57.0 °F 54.0 °F 89% 30.12 in 2.0 mi Variable 3.5 mph - 0.04 in Rain Light Rain
7:11 PM 57.0 °F 54.0 °F 89% 30.12 in 4.0 mi East 4.6 mph - 0.01 in Rain Light Rain
7:56 PM 57.0 °F 54.0 °F 89% 30.12 in 2.5 mi East 4.6 mph - 0.07 in Rain Rain
8:04 PM 57.0 °F 54.0 °F 89% 30.13 in 4.0 mi ENE 3.5 mph - 0.01 in Rain Light Rain
8:37 PM 55.9 °F 54.0 °F 93% 30.13 in 2.5 mi North 4.6 mph - 0.08 in Rain Rain
8:46 PM 55.9 °F 53.1 °F 90% 30.13 in 4.0 mi Variable 3.5 mph - 0.09 in Rain Light Rain
8:56 PM 55.9 °F 54.0 °F 93% 30.13 in 3.0 mi East 4.6 mph - 0.11 in Rain Rain
9:56 PM 55.0 °F 53.1 °F 93% 30.13 in 4.0 mi East 4.6 mph - 0.08 in Rain Light Rain
10:48 PM 55.0 °F 53.1 °F 93% 30.14 in 3.0 mi ENE 3.5 mph - 0.11 in Rain Rain
10:56 PM 55.0 °F 53.1 °F 93% 30.13 in 4.0 mi ENE 3.5 mph - 0.13 in Rain Rain
11:11 PM 55.0 °F 53.1 °F 93% 30.12 in 3.0 mi East 5.8 mph - 0.04 in Rain Rain
11:21 PM 55.0 °F 53.1 °F 93% 30.12 in 3.0 mi East 6.9 mph - 0.05 in Rain Light Rain
11:28 PM 55.0 °F 53.1 °F 93% 30.12 in 3.0 mi East 3.5 mph - 0.06 in Rain Light Rain
11:52 PM 55.4 °F 53.6 °F 94% 30.10 in 2.5 mi East 5.8 mph - 0.09 in Rain Light Rain
11:56 PM 55.0 °F 53.1 °F 93% 30.09 in 2.5 mi East 4.6 mph - 0.09 in Rain Light Rain